Feng Yun 4A

operational
NORAD ID: 41882 Int'l Des: 2016-077 Owner: NSMC Country: CN
HEOCIRCULARGSO

Feng Yun 4Aについて

説明を読み込み中...

リアルタイム位置

3D地球を読み込み中...

次回通過

高度履歴

Altitude vs Time

uPlot chart will show altitude changes over time

軌道要素

1 41882U 16077A 26062.32573449 -.00000371 00000-0 00000+0 0 9998
2 41882 2.0531 81.4319 0007352 135.1146 185.3417 1.00280074 33861
Epoch: Mar 3, 2026 • Age: 27 hours

現在のステータス

高度 35796.8 km
速度 3.07 km/s
衛星直下点 -1.92°S, 123.63°E
打ち上げ日 Dec 10, 2016
運用期間 9.2 years
タイプ other

技術仕様

分類 Payload
質量 5380.00 kg
乾燥質量 3000.00 kg
総質量 5380.00 kg
長さ 4.20 m
直径 3.30 m
スパン 10.00 m
形状 Box + panel
製造者 SISE
バスタイプ FY-4
フェーズステータス In Orbit
所有者/国 NSMC/CN

大規模コンステレーション

Loading constellations...